Previsão horária em Aarle

Hoje, 20 Outubro, Terça-feira

Tempo Temperatura Precipitação Vento Pressão Humidade
00:00 +6°C° 0 mm 4 m/s 758 mmHg 70%
01:00 +7°C° 0 mm 4 m/s 758 mmHg 69%
02:00 +7°C° 0 mm 4 m/s 757 mmHg 68%
03:00 +7°C° 0 mm 4 m/s 756 mmHg 67%
04:00 +7°C° 0 mm 4 m/s 756 mmHg 69%
05:00 +7°C° 0 mm 4 m/s 756 mmHg 71%
06:00 +8°C° 0 mm 4 m/s 756 mmHg 73%
07:00 +9°C° 0 mm 5 m/s 755 mmHg 73%
08:00 +12°C° 0 mm 5 m/s 755 mmHg 72%
09:00 +13°C° 0 mm 6 m/s 755 mmHg 71%
10:00 +13°C° 0.2 mm 5 m/s 755 mmHg 76%
11:00 +13°C° 0.2 mm 5 m/s 756 mmHg 81%
12:00 +13°C° 0.2 mm 5 m/s 756 mmHg 86%
13:00 +13°C° 0.4 mm 5 m/s 756 mmHg 88%
14:00 +13°C° 0.4 mm 5 m/s 755 mmHg 90%
15:00 +13°C° 0.4 mm 5 m/s 755 mmHg 92%
16:00 +13°C° 0.6 mm 5 m/s 755 mmHg 92%
17:00 +13°C° 0.6 mm 5 m/s 755 mmHg 92%
18:00 +13°C° 0.6 mm 5 m/s 755 mmHg 93%
19:00 +13°C° 0.6 mm 5 m/s 755 mmHg 93%
20:00 +13°C° 0.6 mm 4 m/s 755 mmHg 94%
21:00 +13°C° 0.6 mm 4 m/s 755 mmHg 94%
22:00 +13°C° 0.6 mm 4 m/s 755 mmHg 94%
23:00 +13°C° 0.6 mm 4 m/s 754 mmHg 94%

Amanhã, 21 Outubro, Quarta-feira

Tempo Temperatura Precipitação Vento Pressão Humidade
00:00 +13°C° 0.6 mm 5 m/s 754 mmHg 93%
01:00 +13°C° 1.2 mm 5 m/s 753 mmHg 93%
02:00 +12°C° 1.2 mm 5 m/s 753 mmHg 93%
03:00 +12°C° 1.2 mm 5 m/s 752 mmHg 93%
04:00 +12°C° 1.1 mm 5 m/s 752 mmHg 91%
05:00 +13°C° 1.1 mm 5 m/s 751 mmHg 90%
06:00 +13°C° 1.1 mm 5 m/s 751 mmHg 89%
07:00 +13°C° 0.1 mm 6 m/s 751 mmHg 82%
08:00 +14°C° 0.1 mm 6 m/s 751 mmHg 76%
09:00 +15°C° 0.1 mm 7 m/s 751 mmHg 70%
10:00 +15°C° 0 mm 7 m/s 750 mmHg 68%
11:00 +16°C° 0 mm 7 m/s 750 mmHg 67%
12:00 +17°C° 0 mm 7 m/s 750 mmHg 65%
13:00 +17°C° 0 mm 7 m/s 751 mmHg 68%
14:00 +17°C° 0 mm 7 m/s 751 mmHg 70%
15:00 +18°C° 0 mm 7 m/s 752 mmHg 72%
16:00 +17°C° 0 mm 6 m/s 752 mmHg 75%
17:00 +16°C° 0 mm 6 m/s 753 mmHg 79%
18:00 +15°C° 0 mm 5 m/s 754 mmHg 82%
19:00 +15°C° 0 mm 5 m/s 754 mmHg 84%
20:00 +14°C° 0 mm 4 m/s 754 mmHg 85%
21:00 +14°C° 0 mm 4 m/s 755 mmHg 87%
22:00 +14°C° 0 mm 4 m/s 755 mmHg 88%
23:00 +14°C° 0 mm 4 m/s 755 mmHg 89%

Depois de amanhã, 22 Outubro, Quinta-feira

Tempo Temperatura Precipitação Vento Pressão Humidade
00:00 +14°C° 0 mm 4 m/s 755 mmHg 90%
01:00 +14°C° 0 mm 4 m/s 755 mmHg 90%
02:00 +14°C° 0 mm 4 m/s 755 mmHg 91%
03:00 +14°C° 0 mm 4 m/s 755 mmHg 91%
04:00 +14°C° 0.3 mm 4 m/s 755 mmHg 91%
05:00 +14°C° 0.3 mm 5 m/s 755 mmHg 92%
06:00 +14°C° 0.3 mm 5 m/s 755 mmHg 92%
07:00 +14°C° 1.5 mm 5 m/s 755 mmHg 91%
08:00 +15°C° 1.5 mm 6 m/s 755 mmHg 90%
09:00 +15°C° 1.5 mm 6 m/s 754 mmHg 89%
10:00 +15°C° 0.6 mm 6 m/s 754 mmHg 89%
11:00 +15°C° 0.6 mm 5 m/s 754 mmHg 89%
12:00 +15°C° 0.6 mm 5 m/s 754 mmHg 89%
13:00 +16°C° 0.5 mm 6 m/s 754 mmHg 86%
14:00 +16°C° 0.5 mm 6 m/s 753 mmHg 84%
15:00 +17°C° 0.5 mm 7 m/s 753 mmHg 81%
16:00 +16°C° 0.5 mm 6 m/s 753 mmHg 83%
17:00 +15°C° 0.5 mm 5 m/s 753 mmHg 85%
18:00 +14°C° 0.5 mm 4 m/s 753 mmHg 88%
19:00 +14°C° 0.1 mm 5 m/s 753 mmHg 87%
20:00 +13°C° 0.1 mm 5 m/s 753 mmHg 86%
21:00 +13°C° 0.1 mm 5 m/s 753 mmHg 86%
22:00 +13°C° 0 mm 6 m/s 754 mmHg 85%
23:00 +11°C° 0 mm 6 m/s 754 mmHg 85%

23 Outubro, Sexta-feira

Tempo Temperatura Precipitação Vento Pressão Humidade
00:00 +11°C° 0 mm 7 m/s 754 mmHg 85%
01:00 +11°C° 0 mm 7 m/s 754 mmHg 85%
02:00 +11°C° 0 mm 7 m/s 754 mmHg 85%
03:00 +11°C° 0 mm 7 m/s 755 mmHg 85%
04:00 +10°C° 0 mm 7 m/s 755 mmHg 85%
05:00 +10°C° 0 mm 6 m/s 755 mmHg 85%
06:00 +10°C° 0 mm 6 m/s 756 mmHg 84%
07:00 +10°C° 0.1 mm 6 m/s 756 mmHg 81%
08:00 +10°C° 0.1 mm 7 m/s 757 mmHg 77%
09:00 +11°C° 0.1 mm 7 m/s 757 mmHg 73%
10:00 +11°C° 0.1 mm 7 m/s 758 mmHg 71%
11:00 +12°C° 0.1 mm 7 m/s 758 mmHg 69%
12:00 +12°C° 0.1 mm 7 m/s 758 mmHg 67%
13:00 +12°C° 0.1 mm 7 m/s 758 mmHg 68%
14:00 +11°C° 0.1 mm 6 m/s 758 mmHg 70%
15:00 +11°C° 0.1 mm 6 m/s 758 mmHg 72%
16:00 +11°C° 0.1 mm 6 m/s 758 mmHg 72%
17:00 +10°C° 0.1 mm 7 m/s 758 mmHg 72%
18:00 +10°C° 0.1 mm 7 m/s 758 mmHg 72%
19:00 +10°C° 0.3 mm 7 m/s 758 mmHg 76%
20:00 +10°C° 0.3 mm 7 m/s 758 mmHg 79%
21:00 +10°C° 0.3 mm 8 m/s 758 mmHg 83%
22:00 +9°C° 0.1 mm 7 m/s 759 mmHg 82%
23:00 +9°C° 0.1 mm 6 m/s 759 mmHg 82%

24 Outubro, Sábado

Tempo Temperatura Precipitação Vento Pressão Humidade
00:00 +9°C° 0.1 mm 5 m/s 759 mmHg 82%
01:00 +8°C° 0 mm 4 m/s 760 mmHg 83%
02:00 +8°C° 0 mm 4 m/s 760 mmHg 84%
03:00 +7°C° 0 mm 4 m/s 760 mmHg 84%
04:00 +7°C° 0 mm 4 m/s 761 mmHg 85%
05:00 +7°C° 0 mm 4 m/s 761 mmHg 85%
06:00 +7°C° 0 mm 3 m/s 762 mmHg 85%
07:00 +7°C° 0 mm 4 m/s 762 mmHg 81%
08:00 +8°C° 0 mm 4 m/s 762 mmHg 77%
09:00 +10°C° 0 mm 4 m/s 763 mmHg 74%
10:00 +11°C° 0 mm 4 m/s 762 mmHg 69%
11:00 +12°C° 0 mm 4 m/s 762 mmHg 65%
12:00 +13°C° 0 mm 4 m/s 762 mmHg 61%
13:00 +13°C° 0 mm 4 m/s 762 mmHg 65%
14:00 +13°C° 0 mm 3 m/s 762 mmHg 68%
15:00 +14°C° 0 mm 2 m/s 762 mmHg 71%
16:00 +13°C° 0 mm 2 m/s 762 mmHg 72%
17:00 +13°C° 0 mm 2 m/s 761 mmHg 73%
18:00 +13°C° 0 mm 2 m/s 761 mmHg 74%
19:00 +12°C° 0 mm 3 m/s 761 mmHg 77%
20:00 +12°C° 0 mm 3 m/s 761 mmHg 80%
21:00 +12°C° 0 mm 4 m/s 761 mmHg 83%
22:00 +12°C° 0 mm 4 m/s 761 mmHg 86%
23:00 +11°C° 0 mm 4 m/s 761 mmHg 89%

25 Outubro, Domingo

Tempo Temperatura Precipitação Vento Pressão Humidade
00:00 +10°C° 0 mm 4 m/s 761 mmHg 92%
01:00 +10°C° 0 mm 4 m/s 760 mmHg 92%
02:00 +10°C° 0 mm 4 m/s 760 mmHg 93%
03:00 +10°C° 0 mm 4 m/s 759 mmHg 93%
04:00 +10°C° 0 mm 4 m/s 759 mmHg 93%
05:00 +10°C° 0 mm 4 m/s 759 mmHg 93%
06:00 +10°C° 0 mm 4 m/s 759 mmHg 93%
07:00 +11°C° 0 mm 4 m/s 759 mmHg 88%
08:00 +12°C° 0 mm 5 m/s 759 mmHg 83%
09:00 +13°C° 0 mm 5 m/s 758 mmHg 77%
10:00 +14°C° 0 mm 5 m/s 758 mmHg 73%
11:00 +15°C° 0 mm 5 m/s 757 mmHg 69%
12:00 +16°C° 0 mm 5 m/s 757 mmHg 65%
13:00 +17°C° 0 mm 4 m/s 756 mmHg 66%
14:00 +17°C° 0 mm 4 m/s 756 mmHg 67%
15:00 +17°C° 0 mm 3 m/s 755 mmHg 68%
16:00 +16°C° 0 mm 3 m/s 755 mmHg 71%
17:00 +14°C° 0 mm 3 m/s 755 mmHg 74%
18:00 +13°C° 0 mm 4 m/s 755 mmHg 77%
19:00 +12°C° 0 mm 4 m/s 755 mmHg 79%
20:00 +11°C° 0 mm 3 m/s 755 mmHg 82%
21:00 +11°C° 0 mm 3 m/s 755 mmHg 84%
22:00 +11°C° 0 mm 3 m/s 755 mmHg 85%
23:00 +10°C° 0 mm 3 m/s 755 mmHg 87%

26 Outubro, Segunda-feira

Tempo Temperatura Precipitação Vento Pressão Humidade
00:00 +10°C° 0 mm 3 m/s 755 mmHg 88%
01:00 +10°C° 0 mm 3 m/s 755 mmHg 88%
02:00 +10°C° 0 mm 3 m/s 755 mmHg 89%
03:00 +10°C° 0 mm 3 m/s 755 mmHg 89%
04:00 +10°C° 0 mm 3 m/s 755 mmHg 90%
05:00 +9°C° 0 mm 3 m/s 756 mmHg 91%
06:00 +9°C° 0 mm 3 m/s 756 mmHg 92%
07:00 +10°C° 0 mm 3 m/s 756 mmHg 89%
08:00 +11°C° 0 mm 3 m/s 757 mmHg 85%
09:00 +13°C° 0 mm 2 m/s 757 mmHg 82%
10:00 +13°C° 0 mm 3 m/s 757 mmHg 77%
11:00 +14°C° 0 mm 3 m/s 757 mmHg 72%
12:00 +14°C° 0 mm 3 m/s 757 mmHg 67%
13:00 +14°C° 0 mm 3 m/s 758 mmHg 69%
14:00 +14°C° 0 mm 3 m/s 758 mmHg 71%
15:00 +15°C° 0 mm 2 m/s 758 mmHg 72%
16:00 +13°C° 0 mm 2 m/s 759 mmHg 76%
17:00 +12°C° 0 mm 2 m/s 759 mmHg 79%
18:00 +10°C° 0 mm 2 m/s 760 mmHg 82%
19:00 +10°C° 0 mm 2 m/s 760 mmHg 84%
20:00 +9°C° 0 mm 3 m/s 760 mmHg 85%
21:00 +9°C° 0 mm 3 m/s 761 mmHg 87%
22:00 +9°C° 0 mm 3 m/s 761 mmHg 86%
23:00 +8°C° 0 mm 4 m/s 761 mmHg 86%
Mostrar mais